Simultaneous Nadir Overpasses (SNOs) Predictions

Prediction of SNOs between GOES-17 and METOP-A Satellite Orbit:

Table of predicted SNOs for the next 14.0 days since TLE Epoch: 2/4/2022
Index Date Time (GOES-17) GOES-17 Lat,Lon METOP-A Lat,Lon Distance(km) Time Diff (sec)
1 02/07/2022 05:04:34 -0.00,-137.19 0.39,-135.26 219.42 80
2 02/07/2022 17:22:35 0.01,-137.19 0.38,-138.96 200.62 80
3 02/10/2022 05:06:17 -0.00,-137.17 0.35,-135.54 185.97 80
4 02/10/2022 17:24:26 0.01,-137.18 0.46,-139.26 237.76 80
5 02/13/2022 05:10:39 -0.01,-137.14 0.30,-135.81 151.95 80
6 02/13/2022 17:23:36 0.01,-137.14 0.57,-139.56 276.29 80
7 02/16/2022 05:12:18 -0.01,-137.10 0.22,-136.07 116.88 80
8 02/16/2022 17:25:26 0.01,-137.10 0.59,-139.88 316.02 80
